Location: GMARS
(34.2910°N, 116.3838°W)
Time: 14:30:11
(UTC-07:00)

Daily predictions for brighter satellites

Satellite Brightness Start Highest point End
(mag) Time Altitude Azimuth Time Altitude Azimuth Time Altitude Azimuth
Cosmos 968 Rocket 3.6 19:39:18 10° N 19:44:21 56° ENE 19:49:20 10° SSE
FengYun 1-2 T 4.5 19:39:06 10° SSE 19:44:34 54° ENE 19:50:02 10° N
METEOR-M 4.1 19:39:53 10° SSE 19:45:12 75° ENE 19:50:33 10° N
Cosmos 1633 2.5 19:45:01 10° S 19:48:39 76° E 19:52:19 10° N
Cosmos 1536 2.7 19:46:17 10° S 19:50:14 77° E 19:54:14 10° N
Meteor 1-29 3.5 19:47:56 10° N 19:51:21 63° WNW 19:54:46 10° SSW
Okean 1-7 Rocket 4.0 19:48:03 10° NNW 19:52:24 67° W 19:56:45 10° S
NOSS 2-1 (D) 3.5 19:50:03 10° SW 19:53:53 76° WNW 19:58:02 10° NNE
Cosmos 1346 Rocket 4.2 19:51:10 10° NNE 19:54:10 21° ENE 19:57:11 10° SE
NOSS 2-1 (C) 3.5 19:51:04 10° SW 19:54:53 76° WNW 19:59:03 10° NNE
GOES 2 Rocket 4.1 19:52:10 10° WSW 19:55:51 30° S 19:59:46 10° SE
Cosmos 1821 Rocket 4.0 19:49:57 10° S 19:55:58 61° E 20:01:57 10° NNE
Centaur D-1A AC-32 3.4 20:05:01 10° WSW 20:09:25 26° S 20:11:41 13° SE
ALOS 2.3 20:05:25 10° SSE 20:10:00 63° ENE 20:14:38 10° N
Cosmos 2227 Rocket 3.2 20:05:45 10° N 20:10:33 28° ENE 20:14:15 15° ESE
NOSS 2-1 (E) 4.2 20:07:08 10° SW 20:10:54 54° WNW 20:15:05 10° NNE
Meteor 1-5 Rocket 4.0 20:07:38 10° S 20:12:52 67° E 20:18:14 10° NNE
FENGYUN 3A 3.6 20:08:20 10° SSE 20:13:37 67° ENE 20:18:56 10° N
Cosmos 1656 4.4 20:14:47 10° SSE 20:19:36 30° ESE 20:24:23 10° NE
Cosmos 1777 Rocket 4.0 20:16:34 10° NNW 20:21:50 73° ENE 20:27:04 10° SSE
Cosmos 2082 4.5 20:18:17 10° N 20:23:19 33° ENE 20:26:27 19° ESE
Cosmos 2297 Rocket 3.3 20:21:39 10° N 20:26:24 27° ENE 20:28:59 19° E
H-2A R/B 3.9 20:26:32 13° ENE 20:26:47 13° ENE 20:28:45 10° NE
Lacrosse 5 4.3 20:27:06 10° NNE 20:27:33 10° NNE 20:28:00 10° NNE
Cosmos 2208 Rocket 4.0 20:24:01 10° SSW 20:29:17 88° WNW 20:34:41 10° NNE
Cosmos 2123 Rocket 3.9 20:25:11 10° N 20:31:19 67° E 20:37:26 10° SSE
Cosmos 1892 Rocket 3.7 20:27:42 10° N 20:32:11 78° W 20:36:39 10° S
Okean 2 3.4 20:28:43 10° N 20:32:54 89° W 20:37:02 10° S
Cosmos 1626 Rocket 4.3 20:30:05 10° NNE 20:34:05 33° E 20:35:31 27° ESE
Cosmos 1975 3.2 20:30:59 14° SSE 20:34:14 43° E 20:38:08 10° NNE
Cosmos 1455 Rocket 3.1 20:30:14 10° S 20:34:32 80° W 20:38:53 10° N
ATLAS 3B CENTAUR R/B 2.3 20:34:58 10° SW 20:35:19 12° SSW 20:35:19 12° SSW
Cosmos 1025 Rocket 4.5 20:33:03 10° NNW 20:37:05 38° W 20:41:05 10° SSW
Cosmos 1602 Rocket 4.0 20:37:52 10° N 20:42:07 42° E 20:43:33 32° SE
Meteor 2-15 4.5 20:36:27 10° N 20:42:31 80° W 20:48:33 10° S
Resurs 01 Rocket 4.2 20:42:44 10° SW 20:45:58 20° W 20:49:14 10° NW
Tiangong 1 3.6 20:44:40 10° NW 20:46:53 18° N 20:48:47 11° NE
Meteor 2-15 Rocket 4.4 20:41:20 10° N 20:47:26 86° W 20:53:29 10° S
CZ-4 DEB 2.8 20:47:39 51° E 20:47:43 51° ENE 20:50:48 10° N
Lacrosse 5 rocket 2.8 20:46:02 10° N 20:48:43 19° NE 20:49:06 19° NE
USA 186 2.7 20:47:14 15° S 20:49:36 45° W 20:52:33 10° NNW
Cosmos 1461 3.3 20:45:47 10° NNW 20:49:36 41° ENE 20:50:13 38° E
Envisat 3.4 20:51:27 34° ESE 20:52:59 43° ENE 20:57:45 10° N
NOSS 3-4 (A) 3.8 20:46:39 10° NNW 20:53:47 80° ENE 20:58:16 27° SE
NOSS 3-4 (C) 3.8 20:46:46 10° NNW 20:53:54 79° ENE 20:58:21 27° SE
Cosmos 1153 Rocket 4.4 20:48:14 10° S 20:54:25 72° E 21:00:33 10° N
OTV 4 1.1 20:52:26 10° WNW 20:55:17 44° N 20:55:25 43° NNE
H-2A R/B 4.3 20:55:01 10° SSW 20:58:33 35° W 21:02:09 10° NNW
Meteor 1-12 Rocket 4.3 20:54:25 10° S 21:00:06 83° W 21:05:56 10° N
Cosmos 1697 Rocket 2.7 20:56:55 10° S 21:02:23 53° ESE 21:07:52 10° NNE
Cosmos 1939 Rocket 2.9 21:04:26 59° ESE 21:04:50 63° ENE 21:08:56 10° N
Cosmos 1802 Rocket 4.4 21:05:46 38° ESE 21:07:14 43° E 21:13:14 10° NNE
DELTA 2 R/B (1) 4.1 21:02:48 10° WNW 21:08:14 52° N 21:10:33 32° ENE
Delta 2 Rocket 3.8 21:05:14 10° W 21:10:45 85° SSW 21:11:50 56° ESE
Cosmos 1447 Rocket 4.4 21:05:58 10° N 21:12:18 82° E 21:15:36 31° S
Cosmos 220 Rocket 4.0 21:08:21 10° N 21:12:20 58° ENE 21:12:20 58° ENE
ASTEX 1 4.4 21:09:15 10° NNE 21:12:35 31° ENE 21:12:35 31° ENE
SJ-11-01 4.5 21:15:06 37° S 21:16:54 69° WSW 21:21:35 10° NNW
Iridium 4 Rocket 3.5 21:12:07 10° N 21:17:12 73° W 21:19:13 34° SSW
OAO 2 Rocket 3.2 21:16:07 10° W 21:21:12 88° SSE 21:21:56 66° E
Cosmos 1980 Rocket 2.9 21:25:46 37° ENE 21:25:46 37° ENE 21:29:30 10° NNE
Hubble Space Telescope 2.6 21:20:50 10° WSW 21:23:04 21° SW 21:23:04 21° SW
Cosmos 2016 Rocket 4.0 21:28:04 53° E 21:28:05 53° E 21:34:03 10° NNE
ERS-1 Rocket 3.4 21:27:33 37° SSW 21:29:20 58° W 21:34:17 10° NNW
ARGOS 4.2 21:31:03 31° NE 21:31:03 31° NE 21:34:55 10° N
Cosmos 1898 Rocket 3.5 21:30:05 10° NNW 21:35:11 70° NE 21:35:11 70° NE
RESURS DK-1 4.3 21:33:22 10° N 21:35:13 21° NNE 21:35:13 21° NNE
Cosmos 2173 Rocket 4.0 21:38:27 39° S 21:41:02 84° W 21:47:25 10° N
Cosmos 2061 Rocket 4.1 21:45:33 39° SSW 21:48:03 74° W 21:54:21 10° N
CZ-3C R/B 3.7 21:25:25 10° W 21:49:03 32° SSW 21:51:06 29° S
Cosmos 2100 Rocket 4.3 21:46:39 29° SSW 21:50:00 64° W 21:56:13 10° N
MetOp-B 4.2 21:51:33 74° N 21:51:33 74° N 21:56:26 10° NNW
SL-19 R/B 4.5 21:47:34 10° NNE 21:51:51 56° NNE 21:51:51 56° NNE
USA 245 4.4 21:54:28 68° NE 21:54:28 68° NE 22:00:22 10° N
Cosmos 2227 Rocket 3.5 21:49:32 10° NW 21:54:35 34° WSW 21:56:06 29° SW
H-2A R/B 3.7 22:03:40 31° WNW 22:03:40 31° WNW 22:06:16 10° NNW
SPOT 5 3.9 22:11:02 45° WNW 22:11:02 45° WNW 22:15:10 10° NNW
Cosmos 2297 Rocket 3.3 22:05:21 10° NW 22:10:26 36° WSW 22:10:49 35° WSW
Lacrosse 5 3.2 22:06:48 10° NNW 22:09:59 33° N 22:09:59 33° N
USA 215 3.9 22:16:44 44° NE 22:16:44 44° NE 22:22:51 10° NNW
Cosmos 1725 Rocket 4.5 22:26:55 55° NNW 22:26:55 55° NNW 22:31:45 10° N
Lacrosse 5 rocket 4.4 22:24:43 10° WNW 22:24:50 11° WNW 22:24:50 11° WNW
H-2A R/B 3.9 22:31:30 24° N 22:31:30 24° N 22:33:27 10° N
SL-16 R/B 4.5 22:53:37 16° NNE 22:53:37 16° NNE 22:54:45 10° NNE
Terra 4.3 22:58:02 17° NNW 22:58:02 17° NNW 22:59:10 10° NNW
Milstar 3 Cent rocket 4.1 22:42:07 10° W 22:55:17 50° SW 22:55:17 50° SW
Cosmos 1980 Rocket 4.3 23:07:25 20° WNW 23:08:17 21° WNW 23:12:31 10° N
